[[{"header":{"parameterUnit":"m.s-1","parameterCategory":2,"la1":30.2991,"la2":30.254,"lo1":-89.0895,"lo2":-89.0444,"dy":0.0017,"dx":0.0017,"nx":28,"ny":28,"refTime":"2025-07-25T09:00:00:Z","depth":"0","parameterNumber":2,"parameterNumberName":"U-component_of_CURRENTS"},"data":[0,0,0,0,0,0,0,0,0,0,0,0,0,0,0,0,0,0,0,0,0,0,0,0,0,0,0,0,0,0,0,0,0,0,0,0,0,0,0,0,0,0,0,0,0,0,0,0,0,0,0,0,0,0,0,0,0,0,-0.2175,-0.2175,0,-0.2207,-0.2207,-0.2207,-0.218,-0.2179,-0.2178,-0.2177,-0.215,-0.215,-0.215,0,0,0,0,0,0,0,0,0,0,0,0,0,-0.2072,-0.2073,-0.2175,-0.2175,-0.2176,-0.2207,-0.2207,-0.2207,-0.218,-0.2179,-0.2178,-0.2177,-0.215,-0.215,-0.215,0,0,0,0,0,0,0,0,0,0,0,0,0,-0.2108,-0.2074,-0.2175,-0.2169,-0.2169,-0.2206,-0.2207,-0.2207,-0.218,-0.2179,-0.2178,-0.2176,-0.215,-0.215,-0.215,-0.2175,0,0,-0.215,-0.215,0,0,0,0,0,0,0,0,-0.2106,-0.2112,-0.2169,-0.2169,-0.2169,-0.2191,-0.216,-0.2194,-0.218,-0.2172,-0.2177,-0.2176,-0.2161,-0.216,-0.2165,-0.2174,-0.2172,-0.215,-0.215,-0.215,-0.215,0,0,0,0,0,0,0,-0.2104,-0.211,-0.2184,-0.217,-0.217,-0.2158,-0.2162,-0.2167,-0.217,-0.2173,-0.2172,-0.2181,-0.216,-0.2165,-0.2164,-0.2172,-0.215,-0.215,-0.215,-0.215,-0.22,-0.2202,0,0,0,0,0,0,-0.2109,-0.2108,-0.2183,-0.2185,-0.2138,-0.2161,-0.2165,-0.2182,-0.2171,-0.2169,-0.2182,-0.218,-0.2165,-0.2164,-0.2163,-0.2191,-0.215,-0.215,-0.215,-0.2199,-0.2201,-0.2202,0,0,0,0,0,0,-0.2107,-0.2116,-0.2182,-0.2149,-0.2157,-0.2165,-0.2184,-0.2184,-0.2188,-0.2179,-0.2175,-0.2187,-0.2164,-0.2163,-0.2172,-0.219,-0.215,-0.215,-0.2198,-0.22,-0.2201,-0.2249,0,0,0,0,0,0,-0.2104,-0.2115,-0.2123,-0.215,-0.2159,-0.2212,-0.2186,-0.2185,-0.2197,-0.2194,-0.2182,-0.2178,-0.2163,-0.2172,-0.2172,-0.2189,-0.215,-0.2196,-0.2198,-0.2201,-0.2245,-0.2252,-0.2258,0,0,0,0,0,-0.21,-0.212,-0.2123,-0.2132,-0.2172,-0.2214,-0.2218,-0.2216,-0.2199,-0.2212,-0.22,-0.2178,-0.2188,-0.2174,-0.2173,-0.219,-0.2195,-0.2198,-0.2201,-0.2243,-0.2251,-0.2257,0,0,0,0,0,0,-0.2075,-0.2121,-0.2124,-0.2155,-0.2186,-0.2211,-0.2218,-0.2222,-0.2225,-0.2215,-0.2196,-0.2193,-0.2208,-0.2198,-0.2183,-0.2214,-0.2188,-0.2191,-0.222,-0.2227,-0.2233,-0.2235,-0.215,0,0,0,0,0,-0.2077,-0.2101,-0.2145,-0.2166,-0.2184,-0.2202,-0.2215,-0.2223,-0.2233,-0.2232,-0.2225,-0.2218,-0.2223,-0.2223,-0.2224,-0.2243,-0.2229,-0.2255,-0.2261,-0.2266,-0.2269,-0.2266,-0.2272,-0.2212,-0.2212,-0.2212,0,0,-0.2069,-0.2098,-0.2109,-0.2162,-0.2179,-0.222,-0.2205,-0.2235,-0.2263,-0.223,-0.225,-0.224,-0.2233,-0.2252,-0.2258,-0.2244,-0.2277,-0.227,-0.2274,-0.2274,-0.227,-0.2275,-0.228,-0.2214,-0.2213,-0.2213,0,0,-0.2079,-0.2098,-0.2128,-0.2163,-0.2207,-0.2227,-0.224,-0.2274,-0.228,-0.2308,-0.2288,-0.2291,-0.2299,-0.2298,-0.2298,-0.2342,-0.231,-0.2342,-0.2372,-0.237,-0.2374,-0.2378,-0.2371,-0.2373,-0.2344,-0.2344,-0.2344,0,-0.2067,-0.2118,-0.2141,-0.2188,-0.2215,-0.2234,-0.2278,-0.2299,-0.2329,-0.2335,-0.2319,-0.2332,-0.2322,-0.2345,-0.2357,-0.2355,-0.2344,-0.2342,-0.2377,-0.238,-0.2383,-0.2374,-0.2376,-0.2346,-0.2346,-0.2346,-0.2346,0,-0.2109,-0.2152,-0.2174,-0.2238,-0.227,-0.231,-0.2351,-0.2373,-0.2377,-0.2391,-0.2411,-0.2402,-0.2402,-0.2407,-0.2393,-0.2416,-0.2398,-0.2384,-0.2355,-0.2392,-0.238,-0.2382,-0.235,-0.2349,-0.2348,-0.2348,0,0,-0.207,-0.2184,-0.2187,-0.2231,-0.2301,-0.2332,-0.2379,-0.2427,-0.2444,-0.2465,-0.2481,-0.2493,-0.2474,-0.2473,-0.2459,-0.246,-0.2471,-0.2432,-0.243,-0.2418,-0.2461,-0.2399,-0.2394,-0.2458,-0.2459,-0.2459,-0.2445,0,-0.2093,-0.219,-0.2235,-0.2312,-0.2365,-0.24,-0.2437,-0.2476,-0.2493,-0.2513,-0.2512,-0.2519,-0.2506,-0.2495,-0.25,-0.2476,-0.2477,-0.2476,-0.2432,-0.2431,-0.2366,-0.2394,-0.2289,-0.2264,-0.2446,-0.2447,-0.2447,0,-0.2109,-0.2179,-0.2268,-0.2357,-0.2378,-0.2422,-0.247,-0.2508,-0.2542,-0.2545,-0.2558,-0.2553,-0.2564,-0.2536,-0.253,-0.2528,-0.25,-0.2482,-0.248,-0.2405,-0.2371,-0.2256,-0.2259,-0.2245,-0.2449,-0.2448,-0.2448,0,-0.2065,-0.2187,-0.2257,-0.2294,-0.2403,-0.2432,-0.247,-0.2513,-0.2529,-0.256,-0.2558,-0.2581,-0.2571,-0.2561,-0.2528,-0.2527,-0.2509,-0.2499,-0.2422,-0.2417,-0.231,-0.2295,-0.2286,-0.2491,-0.2491,-0.2491,-0.2491,0,-0.2064,-0.2114,-0.2249,-0.2289,-0.2347,-0.2419,-0.2461,-0.2488,-0.2523,-0.2525,-0.2563,-0.2556,-0.2574,-0.2566,-0.254,-0.2483,-0.2517,-0.243,-0.241,-0.2324,-0.2311,-0.2278,-0.2296,-0.249,-0.2491,-0.2491,-0.2491,0,-0.1999,-0.2091,-0.2178,-0.2303,-0.2333,-0.2368,-0.2444,-0.2453,-0.25,-0.2501,-0.2503,-0.2539,-0.2525,-0.2534,-0.2512,-0.2481,-0.2398,-0.241,-0.2306,-0.2274,-0.2183,-0.2207,-0.2177,-0.2118,-0.2327,-0.2326,-0.2324,0,-0.1981,-0.2025,-0.2163,-0.2185,-0.224,-0.231,-0.2327,-0.2413,-0.2418,-0.2472,-0.2446,-0.247,-0.2445,-0.2415,-0.2369,-0.2323,-0.2325,-0.2206,-0.2185,-0.2166,-0.2179,-0.22,-0.2154,-0.2066,-0.2063,-0.206,-0.2058,0,-0.1933,-0.1981,-0.2044,-0.2091,-0.213,-0.2176,-0.2219,-0.2235,-0.2308,-0.2319,-0.2313,-0.2314,-0.2307,-0.2229,-0.2195,-0.2147,-0.2152,-0.2147,-0.2153,-0.1997,-0.1993,-0.1929,-0.2096,-0.2033,-0.2036,-0.2038,-0.2039,-0.204,-0.1869,-0.1884,-0.1943,-0.1968,-0.2003,-0.1996,-0.1971,-0.2034,-0.2039,-0.2031,-0.2135,-0.2104,-0.2113,-0.2045,-0.2006,-0.1909,-0.1965,-0.186,-0.1898,-0.1927,-0.1848,-0.196,-0.186,-0.1862,-0.1863,-0.1864,-0.1865,0,-0.1764,-0.177,-0.1795,-0.1812,-0.1773,-0.1836,-0.184,-0.1782,-0.1743,-0.1835,-0.1839,-0.186,-0.1805,-0.1819,-0.1758,-0.1691,-0.1653,-0.1662,-0.1671,-0.164,-0.1746,-0.171,-0.1542,-0.1542,-0.1542,-0.1542,-0.1542,-0.1542,-0.1697,-0.1664,-0.1674,-0.1575,-0.1561,-0.1443,-0.1407,-0.1362,-0.1383,-0.1378,-0.1437,-0.152,-0.1593,-0.176,-0.1685,-0.1605,-0.1578,-0.1526,-0.1567,-0.1655,-0.1677,-0.1698,-0.1667,-0.1493,-0.1493,-0.1387,-0.1386,-0.1386]},{"header":{"parameterUnit":"m.s-1","parameterCategory":2,"la1":30.2991,"la2":30.254,"lo1":-89.0895,"lo2":-89.0444,"dy":0.0017,"dx":0.0017,"nx":28,"ny":28,"refTime":"2025-07-25T09:00:00:Z","depth":"0","parameterNumber":3,"parameterNumberName":"V-component_of_CURRENTS"},"data":[0,0,0,0,0,0,0,0,0,0,0,0,0,0,0,0,0,0,0,0,0,0,0,0,0,0,0,0,0,0,0,0,0,0,0,0,0,0,0,0,0,0,0,0,0,0,0,0,0,0,0,0,0,0,0,0,0,0,0.0052,0.0052,0,0.0134,0.0135,0.0136,0.0194,0.0195,0.0195,0.0196,0.0307,0.031,0.0312,0,0,0,0,0,0,0,0,0,0,0,0,0,-0.0013,-0.0012,0.0051,0.0052,0.0053,0.0134,0.0135,0.0136,0.0194,0.0195,0.0195,0.0196,0.0306,0.0309,0.0312,0,0,0,0,0,0,0,0,0,0,0,0,0,0.0037,-0.0012,0.0051,0.0092,0.0096,0.0134,0.0135,0.0136,0.0194,0.0195,0.0195,0.0196,0.0305,0.0309,0.0313,0.0324,0,0,0.0325,0.0326,0,0,0,0,0,0,0,0,0.0034,0.0039,0.0085,0.0089,0.0094,0.0154,0.0153,0.02,0.0194,0.0157,0.0196,0.0196,0.0258,0.0266,0.028,0.0329,0.0334,0.0325,0.0327,0.0329,0.033,0,0,0,0,0,0,0,0.003,0.0036,0.0085,0.0086,0.0091,0.012,0.0128,0.0162,0.0204,0.0161,0.0165,0.0173,0.0261,0.0276,0.0283,0.0335,0.0325,0.0328,0.0331,0.0332,0.041,0.041,0,0,0,0,0,0,0.0016,0.0033,0.0082,0.0087,0.0065,0.0121,0.0129,0.0135,0.0203,0.0214,0.0173,0.0176,0.0269,0.0278,0.0287,0.0305,0.0329,0.0332,0.0335,0.041,0.041,0.0409,0,0,0,0,0,0,0.0015,0.002,0.0079,0.0062,0.0071,0.0121,0.0127,0.0136,0.0152,0.0212,0.0223,0.0179,0.027,0.0282,0.0317,0.031,0.0334,0.0338,0.041,0.041,0.041,0.034,0,0,0,0,0,0,0.0012,0.0019,0.0014,0.006,0.0072,0.0092,0.0126,0.0137,0.0156,0.0161,0.0221,0.0232,0.0271,0.0311,0.0321,0.0316,0.0341,0.0411,0.041,0.041,0.0343,0.0337,0.0333,0,0,0,0,0,0.001,-0.0004,0.0013,0.0019,0.0064,0.0091,0.0099,0.0138,0.0155,0.0156,0.02,0.023,0.0315,0.0314,0.0325,0.0321,0.0411,0.041,0.041,0.0345,0.0338,0.0333,0,0,0,0,0,0,-0.0036,0.0002,0.0021,0.002,0.0051,0.0101,0.0103,0.0131,0.0167,0.0171,0.0229,0.0243,0.027,0.0305,0.0302,0.0342,0.0367,0.0369,0.0314,0.0308,0.0303,0.0295,0.0344,0,0,0,0,0,-0.0049,-0.0048,-0.0004,-0.0005,0.0006,0.0054,0.0069,0.0095,0.0134,0.0151,0.0195,0.024,0.0276,0.0299,0.0335,0.0358,0.0401,0.0363,0.0358,0.0353,0.0354,0.0409,0.0409,0.0408,0.0408,0.0408,0,0,-0.0067,-0.0047,-0.0045,-0.0015,0.0011,0.002,0.0064,0.008,0.0092,0.0157,0.0181,0.0223,0.0278,0.0303,0.0319,0.0332,0.0376,0.0352,0.0348,0.0352,0.0408,0.0408,0.0409,0.0407,0.0407,0.0407,0,0,-0.0108,-0.0085,-0.0099,-0.0076,-0.0043,-0.0012,-0.001,0.0038,0.0062,0.0091,0.014,0.0178,0.0232,0.0273,0.03,0.029,0.0346,0.0299,0.0271,0.0323,0.0324,0.0325,0.0379,0.0385,0.0299,0.0299,0.0298,0,-0.0132,-0.0136,-0.0099,-0.0103,-0.0087,-0.0031,-0.0035,-0.0005,0.0049,0.0071,0.0088,0.0176,0.0219,0.0262,0.0258,0.0279,0.0319,0.0286,0.0316,0.0318,0.0321,0.0376,0.0384,0.0295,0.0295,0.0296,0.0296,0,-0.0177,-0.0177,-0.0183,-0.0166,-0.0147,-0.0141,-0.0092,-0.0071,-0.0034,0.0007,0.0055,0.0117,0.0172,0.0188,0.0221,0.0256,0.0283,0.0301,0.0329,0.0317,0.0376,0.0385,0.029,0.0291,0.0292,0.0293,0,0,-0.0232,-0.0219,-0.0219,-0.0213,-0.0176,-0.0161,-0.0148,-0.0108,-0.0092,-0.0036,-0.0004,0.0059,0.0101,0.0135,0.0184,0.023,0.0278,0.0266,0.027,0.0315,0.0398,0.0433,0.0448,0.03,0.0301,0.0302,0.0432,0,-0.0275,-0.0296,-0.0275,-0.0281,-0.0279,-0.0227,-0.0219,-0.0175,-0.0127,-0.0083,-0.0006,0.0041,0.0079,0.0106,0.0156,0.0249,0.03,0.0241,0.0408,0.0413,0.0442,0.0459,0.0501,0.0622,0.0442,0.0444,0.0445,0,-0.0325,-0.0323,-0.0348,-0.0324,-0.032,-0.0314,-0.0274,-0.0257,-0.0186,-0.0153,-0.0089,-0.0021,0.0059,0.009,0.0241,0.0201,0.0291,0.0364,0.0371,0.0436,0.0466,0.0607,0.0647,0.0803,0.046,0.0459,0.0458,0,-0.0376,-0.037,-0.039,-0.0381,-0.0355,-0.0349,-0.0325,-0.0274,-0.0261,-0.0184,-0.0164,-0.0056,0.0004,0.0121,0.027,0.0259,0.0442,0.0448,0.0569,0.0572,0.0659,0.0667,0.0867,0.0558,0.0557,0.0557,0.0557,0,-0.0429,-0.0436,-0.041,-0.0417,-0.0414,-0.0386,-0.0378,-0.0345,-0.0312,-0.03,-0.0199,-0.0156,0.0015,0.0142,0.0267,0.0452,0.0445,0.0574,0.0612,0.0635,0.064,0.0819,0.0866,0.0562,0.0561,0.056,0.0559,0,-0.0484,-0.0481,-0.0477,-0.045,-0.0442,-0.0429,-0.0406,-0.0415,-0.0377,-0.0358,-0.0338,-0.0213,-0.0045,0.0133,0.0345,0.0454,0.0722,0.069,0.0707,0.0743,0.0982,0.102,0.1235,0.1323,0.0842,0.0843,0.0845,0,-0.051,-0.0525,-0.0493,-0.0494,-0.0479,-0.0461,-0.0476,-0.0446,-0.0462,-0.0392,-0.0398,-0.0226,-0.0093,0.0236,0.0466,0.0712,0.0818,0.0888,0.0872,0.1015,0.1087,0.1107,0.1165,0.0965,0.0967,0.0969,0.097,0,-0.0526,-0.0522,-0.0511,-0.0531,-0.0536,-0.0548,-0.0557,-0.0584,-0.0569,-0.0527,-0.0448,-0.0322,0.0006,0.0323,0.0644,0.0786,0.1,0.0933,0.109,0.1209,0.1238,0.1332,0.0856,0.0987,0.0985,0.0984,0.0983,0.0983,-0.0502,-0.0509,-0.0522,-0.054,-0.0569,-0.0643,-0.0658,-0.0685,-0.0686,-0.0608,-0.0472,-0.0202,0.0218,0.0687,0.0845,0.1208,0.1153,0.1323,0.1362,0.1373,0.1448,0.1002,0.1162,0.1161,0.1161,0.116,0.116,0,-0.0461,-0.0509,-0.054,-0.0574,-0.0646,-0.0655,-0.0728,-0.0743,-0.0744,-0.0553,-0.0391,0.0165,0.0591,0.0979,0.1444,0.1638,0.167,0.1734,0.179,0.1832,0.1466,0.1463,0.1684,0.1684,0.1684,0.1684,0.1683,0.1683,-0.0433,-0.0479,-0.0529,-0.0635,-0.0685,-0.0759,-0.0802,-0.0806,-0.0682,-0.0354,0.0027,0.035,0.0862,0.1572,0.2012,0.2049,0.2213,0.2187,0.2271,0.2034,0.1999,0.1965,0.1978,0.2303,0.2304,0.2639,0.2642,0.2645]}],[{"header":{"parameterUnit":"m.s-1","parameterCategory":2,"la1":30.2991,"la2":30.254,"lo1":-89.0895,"lo2":-89.0444,"dy":0.0017,"dx":0.0017,"nx":28,"ny":28,"refTime":"2025-07-25T09:00:00:Z","depth":"2","parameterNumber":2,"parameterNumberName":"U-component_of_CURRENTS"},"data":[0,0,0,0,0,0,0,0,0,0,0,0,0,0,0,0,0,0,0,0,0,0,0,0,0,0,0,0,0,0,0,0,0,0,0,0,0,0,0,0,0,0,0,0,0,0,0,0,0,0,0,0,0,0,0,0,0,0,-0.2007,-0.2008,0,-0.2035,-0.2035,-0.2035,-0.2015,-0.2015,-0.2014,-0.2013,-0.1996,-0.1996,-0.1996,0,0,0,0,0,0,0,0,0,0,0,0,0,-0.1921,-0.1922,-0.2007,-0.2008,-0.2008,-0.2035,-0.2035,-0.2035,-0.2015,-0.2015,-0.2014,-0.2013,-0.1996,-0.1996,-0.1996,0,0,0,0,0,0,0,0,0,0,0,0,0,-0.1952,-0.1923,-0.2007,-0.2004,-0.2004,-0.2035,-0.2035,-0.2035,-0.2016,-0.2015,-0.2014,-0.2013,-0.1996,-0.1996,-0.1996,-0.2016,0,0,-0.1997,-0.1997,0,0,0,0,0,0,0,0,-0.195,-0.1955,-0.2004,-0.2004,-0.2004,-0.2023,-0.1999,-0.2028,-0.2016,-0.2008,-0.2013,-0.2012,-0.2003,-0.2003,-0.2007,-0.2016,-0.2015,-0.1997,-0.1997,-0.1997,-0.1997,0,0,0,0,0,0,0,-0.1948,-0.1953,-0.2015,-0.2004,-0.2005,-0.1996,-0.1999,-0.2004,-0.2008,-0.2009,-0.2008,-0.2016,-0.2003,-0.2007,-0.2006,-0.2015,-0.1997,-0.1997,-0.1997,-0.1997,-0.205,-0.2051,0,0,0,0,0,0,-0.1953,-0.1952,-0.2015,-0.2016,-0.1978,-0.1998,-0.2002,-0.2016,-0.2009,-0.2008,-0.2017,-0.2015,-0.2007,-0.2006,-0.2006,-0.2039,-0.1997,-0.1997,-0.1997,-0.2048,-0.205,-0.2051,0,0,0,0,0,0,-0.1951,-0.1958,-0.2013,-0.1986,-0.1993,-0.2001,-0.2017,-0.2017,-0.2024,-0.2016,-0.2013,-0.2024,-0.2006,-0.2005,-0.2018,-0.2037,-0.1997,-0.1997,-0.2047,-0.2049,-0.2051,-0.2098,0,0,0,0,0,0,-0.1948,-0.1957,-0.1965,-0.1987,-0.1995,-0.2041,-0.2018,-0.2018,-0.2031,-0.2029,-0.2022,-0.2019,-0.2005,-0.2018,-0.2018,-0.2037,-0.1998,-0.2045,-0.2048,-0.205,-0.2095,-0.2101,-0.2107,0,0,0,0,0,-0.1945,-0.1963,-0.1966,-0.1973,-0.2007,-0.2043,-0.2046,-0.2046,-0.2033,-0.2046,-0.2038,-0.2019,-0.2033,-0.2019,-0.2019,-0.2038,-0.2044,-0.2047,-0.205,-0.2092,-0.21,-0.2107,0,0,0,0,0,0,-0.1927,-0.1964,-0.1967,-0.1994,-0.2021,-0.204,-0.2049,-0.2053,-0.2058,-0.2052,-0.2036,-0.2034,-0.2052,-0.2043,-0.2028,-0.2062,-0.2036,-0.2039,-0.2068,-0.2075,-0.2081,-0.2082,-0.1998,0,0,0,0,0,-0.1929,-0.195,-0.1986,-0.2005,-0.2021,-0.2036,-0.2048,-0.2056,-0.2066,-0.2067,-0.2063,-0.206,-0.2066,-0.2068,-0.2071,-0.2091,-0.2077,-0.2104,-0.211,-0.2115,-0.2117,-0.2116,-0.2122,-0.2061,-0.2061,-0.2061,0,0,-0.1924,-0.1948,-0.1958,-0.2002,-0.2017,-0.2053,-0.204,-0.2068,-0.2094,-0.2065,-0.2088,-0.2082,-0.2077,-0.2098,-0.2105,-0.2091,-0.2127,-0.2119,-0.2123,-0.2122,-0.212,-0.2125,-0.213,-0.2063,-0.2063,-0.2062,0,0,-0.1935,-0.1951,-0.1978,-0.2008,-0.2046,-0.2063,-0.2076,-0.2106,-0.2113,-0.2142,-0.2126,-0.2133,-0.2143,-0.2144,-0.2145,-0.2189,-0.216,-0.219,-0.222,-0.2219,-0.2224,-0.2228,-0.2221,-0.2224,-0.2192,-0.2192,-0.2192,0,-0.1928,-0.197,-0.199,-0.203,-0.2055,-0.2071,-0.2111,-0.213,-0.2159,-0.2167,-0.2155,-0.2173,-0.2166,-0.2191,-0.2204,-0.2202,-0.2192,-0.2191,-0.2226,-0.2229,-0.2232,-0.2224,-0.2227,-0.2195,-0.2194,-0.2194,-0.2194,0,-0.1966,-0.2002,-0.2021,-0.2076,-0.2106,-0.2141,-0.2179,-0.2202,-0.2208,-0.2222,-0.2247,-0.2241,-0.2246,-0.2252,-0.2239,-0.2264,-0.2247,-0.2233,-0.2204,-0.2241,-0.2231,-0.2233,-0.2198,-0.2197,-0.2197,-0.2196,0,0,-0.1935,-0.2031,-0.2034,-0.2066,-0.2134,-0.2157,-0.2209,-0.2254,-0.2273,-0.2295,-0.2315,-0.2331,-0.2317,-0.2318,-0.2306,-0.2307,-0.232,-0.2281,-0.2279,-0.2268,-0.2314,-0.2246,-0.2241,-0.2309,-0.2309,-0.231,-0.2298,0,-0.1955,-0.2029,-0.2078,-0.2139,-0.2176,-0.2218,-0.2261,-0.23,-0.2322,-0.2344,-0.2347,-0.2359,-0.2347,-0.2342,-0.2347,-0.2325,-0.2327,-0.2324,-0.2284,-0.2283,-0.2214,-0.2242,-0.2072,-0.2042,-0.23,-0.23,-0.23,0,-0.197,-0.2017,-0.2083,-0.2165,-0.2184,-0.2223,-0.2276,-0.2322,-0.2366,-0.2381,-0.24,-0.2397,-0.241,-0.2385,-0.238,-0.2377,-0.2351,-0.2334,-0.2333,-0.2253,-0.2219,-0.2047,-0.2035,-0.2302,-0.2302,-0.2302,-0.2302,0,-0.1915,-0.2016,-0.2061,-0.209,-0.2187,-0.2215,-0.2261,-0.2319,-0.235,-0.2395,-0.2407,-0.243,-0.2425,-0.2414,-0.2382,-0.238,-0.2361,-0.2352,-0.2273,-0.2268,-0.2106,-0.2085,-0.2347,-0.2347,-0.2347,-0.2347,-0.2347,0,-0.1908,-0.1941,-0.2035,-0.2056,-0.2081,-0.2179,-0.2211,-0.2258,-0.2337,-0.2362,-0.241,-0.2416,-0.243,-0.242,-0.2393,-0.2334,-0.2371,-0.2281,-0.2261,-0.2118,-0.21,-0.2311,-0.2307,-0.2347,-0.2347,-0.2347,-0.2347,0,-0.183,-0.1906,-0.1934,-0.2026,-0.2052,-0.2054,-0.2156,-0.2197,-0.2283,-0.2317,-0.2331,-0.2402,-0.2389,-0.2392,-0.2368,-0.2334,-0.2293,-0.2261,-0.2091,-0.2052,-0.22,-0.2199,-0.218,-0.2177,-0.2175,-0.2173,-0.2172,0,-0.1802,-0.1818,-0.1863,-0.1869,-0.1905,-0.1948,-0.1994,-0.212,-0.2171,-0.2289,-0.2296,-0.233,-0.231,-0.227,-0.2216,-0.2162,-0.2227,-0.1984,-0.1953,-0.22,-0.2184,-0.2186,-0.2187,-0.1759,-0.1755,-0.1751,-0.1748,0,-0.1734,-0.1737,-0.175,-0.1746,-0.1775,-0.1813,-0.1896,-0.1928,-0.2083,-0.2127,-0.2182,-0.2186,-0.2167,-0.2037,-0.1989,-0.1934,-0.1983,-0.1904,-0.2196,-0.1833,-0.1804,-0.1788,-0.1803,-0.1713,-0.1717,-0.1719,-0.1721,-0.1723,-0.1657,-0.1631,-0.1647,-0.1615,-0.1642,-0.1679,-0.167,-0.1787,-0.1838,-0.1901,-0.1994,-0.1947,-0.1949,-0.1775,-0.1697,-0.1638,-0.177,-0.1695,-0.1707,-0.1723,-0.168,-0.165,-0.1523,-0.1525,-0.1527,-0.1528,-0.153,0,-0.1587,-0.1587,-0.1549,-0.1516,-0.1476,-0.1544,-0.1609,-0.1596,-0.1606,-0.1675,-0.1698,-0.1544,-0.1472,-0.1472,-0.1331,-0.1317,-0.1301,-0.1263,-0.1242,-0.1276,-0.1307,-0.1244,-0.097,-0.0968,-0.0966,-0.0965,0,0,-0.1571,-0.1505,-0.1466,-0.1351,-0.1342,-0.1289,-0.1293,-0.1288,-0.1297,-0.1267,-0.1248,-0.1374,-0.1405,-0.118,-0.114,-0.1026,-0.1131,-0.0971,-0.1418,-0.1423,-0.1452,-0.1552,-0.1493,0,0,0,0,0]},{"header":{"parameterUnit":"m.s-1","parameterCategory":2,"la1":30.2991,"la2":30.254,"lo1":-89.0895,"lo2":-89.0444,"dy":0.0017,"dx":0.0017,"nx":28,"ny":28,"refTime":"2025-07-25T09:00:00:Z","depth":"2","parameterNumber":3,"parameterNumberName":"V-component_of_CURRENTS"},"data":[0,0,0,0,0,0,0,0,0,0,0,0,0,0,0,0,0,0,0,0,0,0,0,0,0,0,0,0,0,0,0,0,0,0,0,0,0,0,0,0,0,0,0,0,0,0,0,0,0,0,0,0,0,0,0,0,0,0,-0.0062,-0.0061,0,0.0013,0.0014,0.0015,0.0067,0.0068,0.0068,0.0069,0.0174,0.0176,0.0179,0,0,0,0,0,0,0,0,0,0,0,0,0,-0.0124,-0.0123,-0.0062,-0.0061,-0.006,0.0013,0.0014,0.0015,0.0067,0.0068,0.0068,0.0069,0.0173,0.0176,0.0179,0,0,0,0,0,0,0,0,0,0,0,0,0,-0.0078,-0.0123,-0.0062,-0.0026,-0.0022,0.0013,0.0014,0.0015,0.0067,0.0068,0.0068,0.0069,0.0172,0.0176,0.018,0.0191,0,0,0.0191,0.0192,0,0,0,0,0,0,0,0,-0.008,-0.0075,-0.0032,-0.0028,-0.0024,0.0031,0.0031,0.0076,0.0067,0.0034,0.0069,0.0069,0.0129,0.0136,0.0149,0.0196,0.02,0.0191,0.0193,0.0195,0.0196,0,0,0,0,0,0,0,-0.0084,-0.0078,-0.0032,-0.0031,-0.0026,-0.0,0.0007,0.004,0.0078,0.0037,0.0041,0.0048,0.0131,0.0145,0.0152,0.0202,0.0191,0.0194,0.0197,0.0198,0.0278,0.0278,0,0,0,0,0,0,-0.0096,-0.0081,-0.0035,-0.003,-0.0051,0.0,0.0008,0.0013,0.0077,0.0087,0.0048,0.0051,0.0138,0.0147,0.0156,0.0178,0.0195,0.0198,0.02,0.0278,0.0278,0.0278,0,0,0,0,0,0,-0.0098,-0.0093,-0.0038,-0.0054,-0.0045,0.0,0.0006,0.0014,0.003,0.0085,0.0096,0.0055,0.0139,0.015,0.0185,0.0182,0.02,0.0203,0.0278,0.0278,0.0278,0.022,0,0,0,0,0,0,-0.01,-0.0094,-0.0098,-0.0055,-0.0045,-0.0024,0.0006,0.0015,0.0034,0.0038,0.0095,0.0105,0.014,0.0179,0.0189,0.0188,0.0206,0.0278,0.0278,0.0278,0.0222,0.0218,0.0214,0,0,0,0,0,-0.0102,-0.0113,-0.0098,-0.0093,-0.005,-0.0025,-0.0017,0.0018,0.0033,0.0035,0.0076,0.0103,0.0185,0.0182,0.0194,0.0193,0.0278,0.0278,0.0278,0.0224,0.0219,0.0214,0,0,0,0,0,0,-0.0143,-0.0107,-0.0091,-0.009,-0.0062,-0.0016,-0.0013,0.0013,0.0046,0.0051,0.0104,0.0117,0.0145,0.0177,0.0172,0.0216,0.0236,0.0238,0.0191,0.0186,0.0182,0.0173,0.0209,0,0,0,0,0,-0.0154,-0.0152,-0.0111,-0.0112,-0.0101,-0.0058,-0.0044,-0.0019,0.0017,0.0033,0.0074,0.0117,0.0152,0.0175,0.0209,0.0234,0.0271,0.0241,0.0237,0.0233,0.0233,0.0285,0.0286,0.0277,0.0277,0.0277,0,0,-0.017,-0.0151,-0.0149,-0.012,-0.0096,-0.0087,-0.0048,-0.0032,-0.002,0.0039,0.0064,0.0103,0.0155,0.0182,0.0198,0.021,0.0255,0.0233,0.023,0.0232,0.0285,0.0286,0.0286,0.0277,0.0277,0.0277,0,0,-0.0207,-0.0184,-0.0196,-0.0175,-0.0144,-0.0114,-0.0112,-0.0068,-0.0044,-0.0016,0.0029,0.0068,0.012,0.016,0.0186,0.0183,0.0231,0.0191,0.0169,0.0218,0.0219,0.0221,0.0266,0.0272,0.0192,0.0192,0.0192,0,-0.0229,-0.0234,-0.0196,-0.0199,-0.0185,-0.0131,-0.0136,-0.0104,-0.0053,-0.0032,-0.0017,0.007,0.011,0.0155,0.0154,0.0174,0.0209,0.018,0.0213,0.0215,0.0218,0.0264,0.0271,0.0189,0.019,0.019,0.019,0,-0.027,-0.0271,-0.0276,-0.0259,-0.024,-0.0235,-0.0185,-0.0162,-0.0126,-0.0087,-0.0038,0.0022,0.0075,0.0092,0.0123,0.0161,0.0181,0.0198,0.0222,0.0215,0.0264,0.0273,0.0185,0.0186,0.0187,0.0188,0,0,-0.0322,-0.031,-0.031,-0.0313,-0.0269,-0.026,-0.0236,-0.0195,-0.0177,-0.0121,-0.0089,-0.0025,0.0015,0.0048,0.0095,0.014,0.0185,0.0172,0.0176,0.0211,0.0294,0.0319,0.0331,0.0208,0.0209,0.021,0.032,0,-0.0365,-0.0396,-0.0365,-0.038,-0.0389,-0.0327,-0.0308,-0.026,-0.0209,-0.0164,-0.0087,-0.0041,-0.0003,0.0023,0.0073,0.0158,0.0206,0.0154,0.03,0.0305,0.0323,0.0341,0.0315,0.0411,0.0329,0.033,0.0331,0,-0.0414,-0.0427,-0.0462,-0.0443,-0.0438,-0.0433,-0.0387,-0.0359,-0.0274,-0.0233,-0.0166,-0.0098,-0.0019,0.0011,0.0151,0.0116,0.0197,0.0264,0.027,0.032,0.0346,0.0407,0.0431,0.0347,0.0345,0.0344,0.0343,0,-0.0483,-0.0488,-0.0523,-0.0517,-0.049,-0.0485,-0.0457,-0.0385,-0.0358,-0.0271,-0.0239,-0.0134,-0.0076,0.0034,0.0174,0.0165,0.0332,0.0339,0.0441,0.0444,0.0465,0.0467,0.0441,0.0441,0.044,0.044,0.044,0,-0.0544,-0.0564,-0.0562,-0.058,-0.062,-0.0551,-0.0561,-0.0515,-0.043,-0.0395,-0.0283,-0.0228,-0.0066,0.0053,0.0169,0.0334,0.0332,0.0445,0.0478,0.0443,0.0442,0.0419,0.0415,0.0444,0.0443,0.0442,0.0442,0,-0.0615,-0.0614,-0.0667,-0.0662,-0.0664,-0.0694,-0.0654,-0.0639,-0.0544,-0.0491,-0.0461,-0.0292,-0.0128,0.0038,0.0234,0.0332,0.0484,0.0544,0.0491,0.0515,0.0563,0.0555,0.0666,0.0668,0.067,0.0671,0.0672,0,-0.0652,-0.0686,-0.0752,-0.0804,-0.081,-0.0828,-0.0831,-0.0733,-0.0697,-0.0527,-0.05,-0.0314,-0.0172,0.0124,0.0329,0.0546,0.054,0.064,0.0621,0.0568,0.0588,0.0577,0.0567,0.0627,0.0627,0.0628,0.0628,0,-0.0725,-0.076,-0.0822,-0.0927,-0.0971,-0.0996,-0.097,-0.095,-0.0802,-0.0709,-0.0533,-0.0391,-0.009,0.0162,0.044,0.0557,0.06,0.0658,0.0634,0.0567,0.0538,0.0555,0.0545,0.0633,0.0632,0.0632,0.0632,0.0632,-0.0794,-0.0884,-0.097,-0.1065,-0.1112,-0.1118,-0.1122,-0.1033,-0.0941,-0.0734,-0.058,-0.0318,-0.0083,0.0333,0.0511,0.0677,0.0679,0.0718,0.0713,0.0709,0.0677,0.0652,0.0763,0.0764,0.0764,0.0764,0.0764,0,-0.088,-0.0973,-0.1081,-0.1192,-0.1227,-0.1217,-0.118,-0.1127,-0.1001,-0.0765,-0.0552,-0.0237,0.0082,0.0321,0.0595,0.0751,0.0728,0.0763,0.0701,0.0697,0.0692,0.0657,0.074,0.074,0.074,0.0741,0,0,-0.0945,-0.108,-0.1144,-0.1251,-0.1299,-0.1316,-0.129,-0.1176,-0.101,-0.0765,-0.0523,-0.0204,0.0098,0.0287,0.0477,0.0611,0.0601,0.0616,0.0621,0.0518,0.0511,0.0655,0.0595,0,0,0,0,0]}],[{"header":{"parameterUnit":"m.s-1","parameterCategory":2,"la1":30.2991,"la2":30.254,"lo1":-89.0895,"lo2":-89.0444,"dy":0.0017,"dx":0.0017,"nx":28,"ny":28,"refTime":"2025-07-25T09:00:00:Z","depth":"4","parameterNumber":2,"parameterNumberName":"U-component_of_CURRENTS"},"data":[0,0,0,0,0,0,0,0,0,0,0,0,0,0,0,0,0,0,0,0,0,0,0,0,0,0,0,0,0,0,0,0,0,0,0,0,0,0,0,0,0,0,0,0,0,0,0,0,0,0,0,0,0,0,0,0,0,0,-0.1445,-0.1446,0,-0.1499,-0.1499,-0.15,-0.153,-0.153,-0.153,-0.1531,-0.1582,-0.1583,-0.1584,0,0,0,0,0,0,0,0,0,0,0,0,0,-0.1361,-0.1362,-0.1445,-0.1446,-0.1447,-0.1499,-0.1499,-0.15,-0.153,-0.153,-0.153,-0.1531,-0.1581,-0.1583,-0.1584,0,0,0,0,0,0,0,0,0,0,0,0,0,-0.1403,-0.1362,-0.1445,-0.1469,-0.1472,-0.1498,-0.1499,-0.15,-0.153,-0.153,-0.153,-0.1531,-0.1581,-0.1582,-0.1584,-0.1587,0,0,-0.1589,-0.159,0,0,0,0,0,0,0,0,-0.14,-0.1405,-0.1465,-0.1468,-0.1471,-0.1509,-0.1488,-0.153,-0.153,-0.1506,-0.1531,-0.1531,-0.1558,-0.1562,-0.1569,-0.159,-0.1592,-0.1589,-0.159,-0.1591,-0.1592,0,0,0,0,0,0,0,-0.1397,-0.1403,-0.1465,-0.1466,-0.1469,-0.1475,-0.1481,-0.1496,-0.1528,-0.1508,-0.1511,-0.1519,-0.1559,-0.1567,-0.157,-0.1592,-0.1589,-0.1591,-0.1592,-0.1593,-0.1692,-0.1694,0,0,0,0,0,0,-0.1394,-0.1401,-0.1463,-0.1466,-0.1437,-0.1476,-0.1483,-0.1495,-0.1528,-0.1534,-0.1519,-0.1521,-0.1564,-0.1568,-0.1572,-0.1644,-0.1591,-0.1593,-0.1594,-0.169,-0.1692,-0.1694,0,0,0,0,0,0,-0.1392,-0.1399,-0.1461,-0.1436,-0.1444,-0.1477,-0.1491,-0.1496,-0.153,-0.1537,-0.1542,-0.155,-0.1564,-0.157,-0.1613,-0.1644,-0.1594,-0.1595,-0.1689,-0.1691,-0.1693,-0.1745,0,0,0,0,0,0,-0.139,-0.1398,-0.1418,-0.1436,-0.1446,-0.1497,-0.1491,-0.1497,-0.1534,-0.1537,-0.1565,-0.1568,-0.1565,-0.161,-0.1615,-0.1645,-0.1596,-0.1686,-0.169,-0.1693,-0.1742,-0.1749,-0.1756,0,0,0,0,0,-0.1386,-0.1409,-0.1418,-0.1427,-0.1467,-0.1498,-0.1504,-0.1527,-0.1535,-0.1557,-0.1578,-0.1569,-0.1633,-0.1613,-0.1618,-0.1649,-0.1685,-0.1689,-0.1692,-0.1738,-0.1748,-0.1756,0,0,0,0,0,0,-0.1384,-0.1415,-0.1425,-0.1458,-0.1485,-0.1504,-0.1529,-0.1543,-0.1577,-0.1587,-0.159,-0.1595,-0.1644,-0.1642,-0.1621,-0.1688,-0.1657,-0.1662,-0.1691,-0.17,-0.1707,-0.1704,-0.1598,0,0,0,0,0,-0.1392,-0.1418,-0.1445,-0.1473,-0.1489,-0.1514,-0.1534,-0.1552,-0.1577,-0.1594,-0.1613,-0.1635,-0.1658,-0.1676,-0.1694,-0.1732,-0.1717,-0.1756,-0.1763,-0.1769,-0.1771,-0.1777,-0.1784,-0.1706,-0.1706,-0.1706,0,0,-0.1399,-0.142,-0.1435,-0.1475,-0.1497,-0.153,-0.1528,-0.1568,-0.1602,-0.1593,-0.1651,-0.1664,-0.1675,-0.1717,-0.1739,-0.1723,-0.1784,-0.1773,-0.1778,-0.1777,-0.1781,-0.1788,-0.1795,-0.1709,-0.1708,-0.1708,0,0,-0.142,-0.1446,-0.1473,-0.1501,-0.1543,-0.1559,-0.1577,-0.1615,-0.1641,-0.1691,-0.1695,-0.1728,-0.1766,-0.1779,-0.1788,-0.1847,-0.1822,-0.1858,-0.1892,-0.1898,-0.1904,-0.1909,-0.19,-0.1903,-0.1861,-0.1861,-0.1861,0,-0.143,-0.1466,-0.1487,-0.1522,-0.1551,-0.1576,-0.1615,-0.1644,-0.1694,-0.1717,-0.172,-0.1783,-0.1793,-0.1838,-0.1859,-0.1863,-0.1855,-0.1857,-0.1906,-0.1911,-0.1915,-0.1904,-0.1907,-0.1864,-0.1863,-0.1863,-0.1863,0,-0.1463,-0.1503,-0.1523,-0.1574,-0.1609,-0.1647,-0.1688,-0.173,-0.1761,-0.1784,-0.1843,-0.1859,-0.1892,-0.1905,-0.1901,-0.1944,-0.1925,-0.1913,-0.188,-0.1926,-0.1911,-0.1914,-0.1868,-0.1867,-0.1866,-0.1865,0,0,-0.1449,-0.1531,-0.154,-0.157,-0.1641,-0.1664,-0.1735,-0.179,-0.183,-0.1875,-0.1919,-0.1964,-0.1968,-0.1979,-0.1981,-0.199,-0.2014,-0.1969,-0.1968,-0.1951,-0.2018,-0.188,-0.1869,-0.201,-0.201,-0.2011,-0.1995,0,-0.1469,-0.1528,-0.1579,-0.1643,-0.1671,-0.1731,-0.1791,-0.1846,-0.1891,-0.1938,-0.1961,-0.2002,-0.1997,-0.2016,-0.2027,-0.2017,-0.2024,-0.2019,-0.1983,-0.1981,-0.1847,-0.1869,-0.2014,-0.1996,-0.1997,-0.1997,-0.1997,0,-0.1479,-0.1513,-0.1575,-0.1665,-0.1687,-0.1736,-0.1822,-0.1882,-0.1955,-0.1996,-0.204,-0.2053,-0.2085,-0.2067,-0.2076,-0.2073,-0.2054,-0.2039,-0.2038,-0.1891,-0.1848,-0.1942,-0.2002,-0.2001,-0.2001,-0.2001,-0.2,0,-0.1418,-0.1514,-0.1557,-0.1586,-0.1688,-0.1736,-0.1798,-0.1889,-0.1943,-0.2023,-0.2061,-0.2101,-0.2115,-0.2111,-0.2084,-0.2086,-0.207,-0.2066,-0.1926,-0.1916,-0.2022,-0.2017,-0.2069,-0.2069,-0.2069,-0.2069,-0.2069,0,-0.1395,-0.1437,-0.1529,-0.1545,-0.1597,-0.1697,-0.1769,-0.1843,-0.195,-0.2002,-0.2075,-0.2098,-0.2128,-0.2118,-0.2095,-0.2003,-0.2078,-0.1927,-0.1901,-0.2045,-0.2042,-0.2023,-0.2018,-0.2069,-0.2069,-0.2069,-0.2069,0,-0.1311,-0.1387,-0.1425,-0.1526,-0.1563,-0.1589,-0.1734,-0.1794,-0.1912,-0.198,-0.2008,-0.2093,-0.2077,-0.208,-0.206,-0.1995,-0.1937,-0.1889,-0.2034,-0.2017,-0.1781,-0.1779,-0.1733,-0.1728,-0.1724,-0.172,-0.1717,0,-0.1269,-0.1278,-0.1363,-0.1393,-0.144,-0.1513,-0.1583,-0.1738,-0.1804,-0.1952,-0.1967,-0.2003,-0.2031,-0.1886,-0.1911,-0.1845,-0.1824,-0.1792,-0.1795,-0.1767,-0.1747,-0.1752,-0.1755,-0.171,-0.1709,-0.1708,-0.1707,0,-0.116,-0.1197,-0.1226,-0.1273,-0.1339,-0.141,-0.1516,-0.1553,-0.1733,-0.185,-0.1866,-0.1852,-0.1825,-0.1786,-0.1739,-0.1699,-0.1812,-0.1748,-0.1757,-0.1759,-0.1739,-0.1724,-0.1733,-0.1692,-0.1694,-0.1696,-0.1697,0,-0.107,-0.106,-0.1106,-0.1142,-0.1228,-0.1289,-0.1361,-0.1447,-0.1526,-0.1709,-0.1694,-0.174,-0.1803,-0.1709,-0.1668,-0.1609,-0.159,-0.1548,-0.1568,-0.1584,-0.154,-0.1492,-0.1341,0,0,0,0,0,-0.0967,-0.0966,-0.0988,-0.1031,-0.112,-0.1168,-0.1321,-0.1412,-0.1571,-0.1541,-0.1622,-0.1593,-0.1545,-0.1561,-0.1463,-0.159,-0.159,-0.1472,-0.1552,-0.161,-0.1627,-0.1587,0,0,0,0,0,0,-0.0905,-0.0921,-0.0934,-0.0933,-0.0956,-0.1045,-0.1138,-0.1257,-0.1252,-0.1404,-0.1372,-0.1479,-0.1435,-0.1549,-0.1416,-0.1421,-0.1439,-0.1504,-0.15,-0.1601,-0.1616,-0.163,-0.1594,0,0,0,0,0]},{"header":{"parameterUnit":"m.s-1","parameterCategory":2,"la1":30.2991,"la2":30.254,"lo1":-89.0895,"lo2":-89.0444,"dy":0.0017,"dx":0.0017,"nx":28,"ny":28,"refTime":"2025-07-25T09:00:00:Z","depth":"4","parameterNumber":3,"parameterNumberName":"V-component_of_CURRENTS"},"data":[0,0,0,0,0,0,0,0,0,0,0,0,0,0,0,0,0,0,0,0,0,0,0,0,0,0,0,0,0,0,0,0,0,0,0,0,0,0,0,0,0,0,0,0,0,0,0,0,0,0,0,0,0,0,0,0,0,0,-0.0087,-0.0086,0,-0.0033,-0.0032,-0.0032,0.0003,0.0003,0.0003,0.0003,0.0091,0.0093,0.0095,0,0,0,0,0,0,0,0,0,0,0,0,0,-0.0132,-0.0132,-0.0087,-0.0086,-0.0086,-0.0033,-0.0032,-0.0032,0.0003,0.0003,0.0003,0.0004,0.009,0.0093,0.0095,0,0,0,0,0,0,0,0,0,0,0,0,0,-0.0099,-0.0132,-0.0087,-0.0062,-0.006,-0.0033,-0.0032,-0.0031,0.0003,0.0003,0.0003,0.0004,0.0089,0.0092,0.0096,0.011,0,0,0.0105,0.0107,0,0,0,0,0,0,0,0,-0.0101,-0.0097,-0.0067,-0.0064,-0.0061,-0.0022,-0.0016,0.0017,0.0003,-0.002,0.0003,0.0004,0.0056,0.0062,0.0071,0.0114,0.0118,0.0106,0.0108,0.0109,0.011,0,0,0,0,0,0,0,-0.0103,-0.0099,-0.0065,-0.0066,-0.0062,-0.0045,-0.004,-0.001,0.0016,-0.0018,-0.0016,-0.0011,0.0058,0.0068,0.0074,0.0119,0.0106,0.0109,0.0111,0.0112,0.0191,0.0191,0,0,0,0,0,0,-0.0112,-0.0102,-0.0067,-0.0064,-0.0081,-0.0044,-0.0039,-0.0034,0.0015,0.0023,-0.0011,-0.0009,0.0062,0.007,0.0077,0.0103,0.0109,0.0112,0.0114,0.0191,0.0191,0.0191,0,0,0,0,0,0,-0.0113,-0.011,-0.0069,-0.0082,-0.0075,-0.0044,-0.0039,-0.0033,-0.0022,0.0021,0.0029,-0.0006,0.0063,0.0072,0.0104,0.0107,0.0114,0.0116,0.0191,0.0191,0.0191,0.0152,0,0,0,0,0,0,-0.0115,-0.0111,-0.0114,-0.0082,-0.0075,-0.0058,-0.0039,-0.0033,-0.002,-0.0017,0.0028,0.0036,0.0064,0.0099,0.0107,0.0111,0.0119,0.019,0.0191,0.0191,0.0153,0.015,0.0149,0,0,0,0,0,-0.0117,-0.0123,-0.0114,-0.011,-0.0079,-0.0058,-0.0053,-0.0029,-0.002,-0.0018,0.0015,0.0035,0.0107,0.0102,0.0111,0.0116,0.019,0.0191,0.0191,0.0154,0.0151,0.0149,0,0,0,0,0,0,-0.0145,-0.0119,-0.0109,-0.0107,-0.0087,-0.0053,-0.0051,-0.0033,-0.0006,-0.0004,0.0038,0.0048,0.0076,0.0102,0.0095,0.014,0.0152,0.0154,0.012,0.0118,0.0116,0.0106,0.0122,0,0,0,0,0,-0.0153,-0.0151,-0.0121,-0.0121,-0.0113,-0.0083,-0.0072,-0.0056,-0.0027,-0.0015,0.0017,0.0053,0.0085,0.0105,0.0134,0.016,0.0188,0.017,0.0168,0.0166,0.0165,0.0209,0.0211,0.0192,0.0192,0.0192,0,0,-0.0165,-0.015,-0.015,-0.0127,-0.0111,-0.0103,-0.0076,-0.0064,-0.0053,-0.0009,0.0013,0.0045,0.0089,0.0117,0.0132,0.014,0.0185,0.0166,0.0164,0.0164,0.021,0.0212,0.0214,0.0193,0.0193,0.0193,0,0,-0.0191,-0.0174,-0.0183,-0.0166,-0.0144,-0.0122,-0.0121,-0.0087,-0.0069,-0.0044,-0.0009,0.0026,0.0071,0.0107,0.013,0.0135,0.0169,0.0144,0.013,0.0173,0.0175,0.0177,0.0207,0.0212,0.0146,0.0146,0.0146,0,-0.0208,-0.0213,-0.0182,-0.0184,-0.0176,-0.0134,-0.014,-0.0111,-0.0072,-0.0054,-0.0043,0.0032,0.0068,0.0111,0.0113,0.0131,0.0156,0.0134,0.017,0.0172,0.0175,0.0206,0.0212,0.0144,0.0144,0.0144,0.0145,0,-0.0236,-0.024,-0.0243,-0.0231,-0.0216,-0.0214,-0.0172,-0.0152,-0.0124,-0.0092,-0.0048,0.0004,0.0049,0.0067,0.0093,0.0131,0.0142,0.0158,0.0173,0.0174,0.0207,0.0214,0.0141,0.0142,0.0143,0.0143,0,0,-0.0275,-0.0268,-0.027,-0.0281,-0.0243,-0.0239,-0.0211,-0.0178,-0.0161,-0.0112,-0.0086,-0.0024,0.0009,0.0037,0.0078,0.012,0.016,0.0143,0.0147,0.0168,0.0247,0.0224,0.023,0.0182,0.0183,0.0184,0.0259,0,-0.0311,-0.0342,-0.0315,-0.0336,-0.0349,-0.0296,-0.0275,-0.0233,-0.0188,-0.0148,-0.0078,-0.0038,-0.0003,0.0018,0.0066,0.0137,0.0177,0.0137,0.0247,0.025,0.0226,0.0237,0.0187,0.0264,0.0266,0.0267,0.0268,0,-0.0348,-0.0367,-0.0403,-0.0401,-0.0398,-0.0398,-0.036,-0.0333,-0.025,-0.0211,-0.0149,-0.0089,-0.0016,0.001,0.0131,0.0103,0.0168,0.0224,0.0229,0.0227,0.0241,0.0267,0.0281,0.028,0.0279,0.0278,0.0278,0,-0.0408,-0.0426,-0.0465,-0.0464,-0.0448,-0.0451,-0.0432,-0.0362,-0.0334,-0.0252,-0.0219,-0.0123,-0.0073,0.0022,0.0141,0.0138,0.0272,0.0284,0.0327,0.0326,0.034,0.0338,0.0368,0.0368,0.0368,0.0367,0.0367,0,-0.0456,-0.0487,-0.0506,-0.0528,-0.057,-0.0521,-0.0531,-0.0487,-0.0411,-0.0369,-0.0265,-0.0206,-0.0067,0.0035,0.0133,0.0248,0.0269,0.0325,0.0346,0.0321,0.0315,0.0345,0.0341,0.037,0.037,0.0369,0.0369,0,-0.051,-0.0521,-0.0579,-0.0596,-0.0605,-0.0637,-0.0613,-0.0597,-0.0517,-0.0456,-0.0428,-0.0271,-0.0132,0.0005,0.017,0.0232,0.0348,0.0385,0.0342,0.0359,0.0373,0.0367,0.0434,0.0434,0.0434,0.0434,0.0434,0,-0.054,-0.0576,-0.0648,-0.0689,-0.0705,-0.0736,-0.0737,-0.067,-0.0634,-0.0485,-0.0451,-0.03,-0.0188,0.0032,0.0166,0.0341,0.0366,0.0411,0.0398,0.0367,0.0381,0.0375,0.0369,0.0434,0.0434,0.0434,0.0434,0,-0.0598,-0.0631,-0.0677,-0.0766,-0.0808,-0.0839,-0.0831,-0.0809,-0.0692,-0.063,-0.0448,-0.0296,-0.0141,0.0034,0.0167,0.0296,0.0372,0.0411,0.0412,0.04,0.0368,0.038,0.0374,0.0433,0.0433,0.0433,0.0433,0,-0.0642,-0.0691,-0.0756,-0.0824,-0.0887,-0.0904,-0.0899,-0.0817,-0.0762,-0.0571,-0.0517,-0.0304,-0.0176,0.0012,0.014,0.0255,0.0281,0.0305,0.0312,0.0314,0.0252,0.0192,0.0224,0,0,0,0,0,-0.0676,-0.0719,-0.0795,-0.0869,-0.0929,-0.0957,-0.093,-0.0893,-0.0787,-0.0664,-0.0576,-0.041,-0.0166,-0.0053,0.0058,0.01,0.0263,0.0228,0.0284,0.0431,0.0432,0.0377,0,0,0,0,0,0,-0.0701,-0.0773,-0.08,-0.0885,-0.0934,-0.0981,-0.0967,-0.0895,-0.0806,-0.0678,-0.0546,-0.0419,-0.0194,-0.024,0.0047,0.0086,0.0129,0.0355,0.0357,0.0431,0.0432,0.0432,0.0376,0,0,0,0,0]}]]